Location: Bothwell
(41.7170°N, 112.2589°W)
Time: 19:15:48
(UTC+00:00)

ACS3 Solar Sail - Pass Details

Date: 19 April 2026
Orbit: 894 x 947 km, 97.2° (Epoch: 12 May)

Event Time Altitude Azimuth Distance (km) Brightness Sun altitude
Rises 09:26:39 0° 4° (N) 3,544 5.6 -30.4°
Reaches altitude 10° 09:29:11 10° 357° (N) 2,605 4.6 -30.2°
Enters shadow 09:33:45 38° 309° (NW) 1,375 2.5 -29.7°
